owner,sensor,date,latitude,longitude,vertical_datum,sea_water_practical_salinity,qcFlag 
NERRS,ioos:station:NOAA.NERRS:gndbcwq:1,2015-06-01T00:00:00Z,30.3836,-88.4364,0.38,4.1,1111122 
NERRS,ioos:station:NOAA.NERRS:gndbcwq:1,2015-06-01T01:00:00Z,30.3836,-88.4364,0.35,3.6,1111122 
NERRS,ioos:station:NOAA.NERRS:gndbcwq:1,2015-06-01T02:00:00Z,30.3836,-88.4364,0.39,6.4,1111122 
NERRS,ioos:station:NOAA.NERRS:gndbcwq:1,2015-06-01T03:00:00Z,30.3836,-88.4364,0.42,4.9,1111122 
NERRS,ioos:station:NOAA.NERRS:gndbcwq:1,2015-06-01T04:00:00Z,30.3836,-88.4364,0.44,5.3,1111122 
NERRS,ioos:station:NOAA.NERRS:gndbcwq:1,2015-06-01T05:00:00Z,30.3836,-88.4364,0.49,6.4,1111122 
NERRS,ioos:station:NOAA.NERRS:gndbcwq:1,2015-06-01T06:00:00Z,30.3836,-88.4364,0.52,6.2,1111122 
NERRS,ioos:station:NOAA.NERRS:gndbcwq:1,2015-06-01T07:00:00Z,30.3836,-88.4364,0.53,6.9,1111122 
NERRS,ioos:station:NOAA.NERRS:gndbcwq:1,2015-06-01T08:00:00Z,30.3836,-88.4364,0.57,8.3,1111122 
NERRS,ioos:station:NOAA.NERRS:gndbcwq:1,2015-06-01T09:00:00Z,30.3836,-88.4364,0.63,7.2,1111122 
NERRS,ioos:station:NOAA.NERRS:gndbcwq:1,2015-06-01T10:00:00Z,30.3836,-88.4364,0.69,8.1,1111122 
NERRS,ioos:station:NOAA.NERRS:gndbcwq:1,2015-06-01T11:00:00Z,30.3836,-88.4364,0.76,9.9,1111122 
NERRS,ioos:station:NOAA.NERRS:gndbcwq:1,2015-06-01T12:00:00Z,30.3836,-88.4364,0.82,11.0,1111122 
NERRS,ioos:station:NOAA.NERRS:gndbcwq:1,2015-06-01T13:00:00Z,30.3836,-88.4364,0.84,11.5,1111122 
NERRS,ioos:station:NOAA.NERRS:gndbcwq:1,2015-06-01T14:00:00Z,30.3836,-88.4364,0.83,12.2,1111122 
NERRS,ioos:station:NOAA.NERRS:gndbcwq:1,2015-06-01T15:00:00Z,30.3836,-88.4364,0.79,10.2,1111122 
NERRS,ioos:station:NOAA.NERRS:gndbcwq:1,2015-06-01T16:00:00Z,30.3836,-88.4364,0.76,9.9,1111122 
NERRS,ioos:station:NOAA.NERRS:gndbcwq:1,2015-06-01T17:00:00Z,30.3836,-88.4364,0.73,7.7,1111122 
NERRS,ioos:station:NOAA.NERRS:gndbcwq:1,2015-06-01T18:00:00Z,30.3836,-88.4364,0.68,7.8,1111122 
NERRS,ioos:station:NOAA.NERRS:gndbcwq:1,2015-06-01T19:00:00Z,30.3836,-88.4364,0.56,8.3,1111122 
NERRS,ioos:station:NOAA.NERRS:gndbcwq:1,2015-06-01T20:00:00Z,30.3836,-88.4364,0.45,7.3,1111122 
NERRS,ioos:station:NOAA.NERRS:gndbcwq:1,2015-06-01T21:00:00Z,30.3836,-88.4364,0.36,5.7,1111122 
NERRS,ioos:station:NOAA.NERRS:gndbcwq:1,2015-06-01T22:00:00Z,30.3836,-88.4364,0.3,5.4,1111122 
NERRS,ioos:station:NOAA.NERRS:gndbcwq:1,2015-06-01T23:00:00Z,30.3836,-88.4364,0.29,4.6,1111122 
NERRS,ioos:station:NOAA.NERRS:gndbcwq:1,2015-06-02T01:00:00Z,30.3836,-88.4364,0.28,5.3,1111122 
NERRS,ioos:station:NOAA.NERRS:gndbcwq:1,2015-06-02T02:00:00Z,30.3836,-88.4364,0.3,4.9,1111122 
NERRS,ioos:station:NOAA.NERRS:gndbcwq:1,2015-06-02T03:00:00Z,30.3836,-88.4364,0.38,5.3,1111122 
NERRS,ioos:station:NOAA.NERRS:gndbcwq:1,2015-06-02T04:00:00Z,30.3836,-88.4364,0.46,6.1,1111122 
NERRS,ioos:station:NOAA.NERRS:gndbcwq:1,2015-06-02T06:00:00Z,30.3836,-88.4364,0.52,7.2,1111122 
NERRS,ioos:station:NOAA.NERRS:gndbcwq:1,2015-06-02T07:00:00Z,30.3836,-88.4364,0.54,7.0,1111122 
NERRS,ioos:station:NOAA.NERRS:gndbcwq:1,2015-06-02T08:00:00Z,30.3836,-88.4364,0.6,7.7,1111122 
NERRS,ioos:station:NOAA.NERRS:gndbcwq:1,2015-06-02T09:00:00Z,30.3836,-88.4364,0.64,7.9,1111122 
NERRS,ioos:station:NOAA.NERRS:gndbcwq:1,2015-06-02T10:00:00Z,30.3836,-88.4364,0.65,8.7,1111122 
NERRS,ioos:station:NOAA.NERRS:gndbcwq:1,2015-06-02T11:00:00Z,30.3836,-88.4364,0.7,10.0,1111122 
NERRS,ioos:station:NOAA.NERRS:gndbcwq:1,2015-06-02T12:00:00Z,30.3836,-88.4364,0.77,10.2,1111122 
NERRS,ioos:station:NOAA.NERRS:gndbcwq:1,2015-06-02T13:00:00Z,30.3836,-88.4364,0.82,11.7,1111122 
NERRS,ioos:station:NOAA.NERRS:gndbcwq:1,2015-06-02T14:00:00Z,30.3836,-88.4364,0.87,12.7,1111122 
NERRS,ioos:station:NOAA.NERRS:gndbcwq:1,2015-06-02T15:00:00Z,30.3836,-88.4364,0.85,13.1,1111122 
NERRS,ioos:station:NOAA.NERRS:gndbcwq:1,2015-06-02T16:00:00Z,30.3836,-88.4364,0.78,12.8,1111122 
NERRS,ioos:station:NOAA.NERRS:gndbcwq:1,2015-06-02T17:00:00Z,30.3836,-88.4364,0.73,10.9,1111122 
NERRS,ioos:station:NOAA.NERRS:gndbcwq:1,2015-06-02T18:00:00Z,30.3836,-88.4364,0.68,10.5,1111122 
NERRS,ioos:station:NOAA.NERRS:gndbcwq:1,2015-06-02T19:00:00Z,30.3836,-88.4364,0.61,10.0,1111122 
NERRS,ioos:station:NOAA.NERRS:gndbcwq:1,2015-06-02T20:00:00Z,30.3836,-88.4364,0.51,9.1,1111122 
NERRS,ioos:station:NOAA.NERRS:gndbcwq:1,2015-06-02T21:00:00Z,30.3836,-88.4364,0.41,8.3,1111122 
NERRS,ioos:station:NOAA.NERRS:gndbcwq:1,2015-06-02T22:00:00Z,30.3836,-88.4364,0.34,6.3,1111122 
NERRS,ioos:station:NOAA.NERRS:gndbcwq:1,2015-06-02T23:00:00Z,30.3836,-88.4364,0.28,5.7,1111122 
NERRS,ioos:station:NOAA.NERRS:gndbcwq:1,2015-06-03T00:00:00Z,30.3836,-88.4364,0.26,5.2,1111122 
NERRS,ioos:station:NOAA.NERRS:gndbcwq:1,2015-06-03T01:00:00Z,30.3836,-88.4364,0.28,4.9,1111122 
NERRS,ioos:station:NOAA.NERRS:gndbcwq:1,2015-06-03T02:00:00Z,30.3836,-88.4364,0.32,7.1,1111122 
NERRS,ioos:station:NOAA.NERRS:gndbcwq:1,2015-06-03T03:00:00Z,30.3836,-88.4364,0.34,6.1,1111122 
NERRS,ioos:station:NOAA.NERRS:gndbcwq:1,2015-06-03T04:00:00Z,30.3836,-88.4364,0.38,7.0,1111122 
NERRS,ioos:station:NOAA.NERRS:gndbcwq:1,2015-06-03T06:00:00Z,30.3836,-88.4364,0.45,7.6,1111122 
NERRS,ioos:station:NOAA.NERRS:gndbcwq:1,2015-06-03T07:00:00Z,30.3836,-88.4364,0.5,8.0,1111122 
NERRS,ioos:station:NOAA.NERRS:gndbcwq:1,2015-06-03T08:00:00Z,30.3836,-88.4364,0.53,8.7,1111122 
NERRS,ioos:station:NOAA.NERRS:gndbcwq:1,2015-06-03T09:00:00Z,30.3836,-88.4364,0.59,8.7,1111122 
NERRS,ioos:station:NOAA.NERRS:gndbcwq:1,2015-06-03T10:00:00Z,30.3836,-88.4364,0.65,8.9,1111122 
NERRS,ioos:station:NOAA.NERRS:gndbcwq:1,2015-06-03T11:00:00Z,30.3836,-88.4364,0.67,10.2,1111122 
NERRS,ioos:station:NOAA.NERRS:gndbcwq:1,2015-06-03T12:00:00Z,30.3836,-88.4364,0.71,9.9,1111122 
NERRS,ioos:station:NOAA.NERRS:gndbcwq:1,2015-06-03T13:00:00Z,30.3836,-88.4364,0.76,11.4,1111122 
NERRS,ioos:station:NOAA.NERRS:gndbcwq:1,2015-06-03T14:00:00Z,30.3836,-88.4364,0.82,12.6,1111122 
NERRS,ioos:station:NOAA.NERRS:gndbcwq:1,2015-06-03T15:00:00Z,30.3836,-88.4364,0.86,13.6,1111122 
NERRS,ioos:station:NOAA.NERRS:gndbcwq:1,2015-06-03T16:00:00Z,30.3836,-88.4364,0.85,14.0,1111122 
NERRS,ioos:station:NOAA.NERRS:gndbcwq:1,2015-06-03T17:00:00Z,30.3836,-88.4364,0.82,13.7,1111122 
NERRS,ioos:station:NOAA.NERRS:gndbcwq:1,2015-06-03T18:00:00Z,30.3836,-88.4364,0.76,13.6,1111122 
NERRS,ioos:station:NOAA.NERRS:gndbcwq:1,2015-06-03T19:00:00Z,30.3836,-88.4364,0.69,12.3,1111122 
NERRS,ioos:station:NOAA.NERRS:gndbcwq:1,2015-06-03T20:00:00Z,30.3836,-88.4364,0.6,11.3,1111122 
NERRS,ioos:station:NOAA.NERRS:gndbcwq:1,2015-06-03T21:00:00Z,30.3836,-88.4364,0.48,10.3,1111122 
NERRS,ioos:station:NOAA.NERRS:gndbcwq:1,2015-06-03T22:00:00Z,30.3836,-88.4364,0.38,9.2,1111122 
NERRS,ioos:station:NOAA.NERRS:gndbcwq:1,2015-06-03T23:00:00Z,30.3836,-88.4364,0.31,7.4,1111122 
NERRS,ioos:station:NOAA.NERRS:gndbcwq:1,2015-06-04T00:00:00Z,30.3836,-88.4364,0.25,6.3,1111122 
NERRS,ioos:station:NOAA.NERRS:gndbcwq:1,2015-06-04T01:00:00Z,30.3836,-88.4364,0.24,5.9,1111122 
NERRS,ioos:station:NOAA.NERRS:gndbcwq:1,2015-06-04T02:00:00Z,30.3836,-88.4364,0.26,5.6,1111122 
NERRS,ioos:station:NOAA.NERRS:gndbcwq:1,2015-06-04T03:00:00Z,30.3836,-88.4364,0.28,5.5,1111122 
NERRS,ioos:station:NOAA.NERRS:gndbcwq:1,2015-06-04T04:00:00Z,30.3836,-88.4364,0.32,7.1,1111122 
NERRS,ioos:station:NOAA.NERRS:gndbcwq:1,2015-06-04T06:00:00Z,30.3836,-88.4364,0.44,7.5,1111122 
NERRS,ioos:station:NOAA.NERRS:gndbcwq:1,2015-06-04T07:00:00Z,30.3836,-88.4364,0.48,8.1,1111122 
NERRS,ioos:station:NOAA.NERRS:gndbcwq:1,2015-06-04T08:00:00Z,30.3836,-88.4364,0.48,8.4,1111122 
NERRS,ioos:station:NOAA.NERRS:gndbcwq:1,2015-06-04T09:00:00Z,30.3836,-88.4364,0.55,8.5,1111122 
NERRS,ioos:station:NOAA.NERRS:gndbcwq:1,2015-06-04T10:00:00Z,30.3836,-88.4364,0.6,9.3,1111122 
NERRS,ioos:station:NOAA.NERRS:gndbcwq:1,2015-06-04T11:00:00Z,30.3836,-88.4364,0.66,10.2,1111122 
NERRS,ioos:station:NOAA.NERRS:gndbcwq:1,2015-06-04T12:00:00Z,30.3836,-88.4364,0.71,10.6,1111122 
NERRS,ioos:station:NOAA.NERRS:gndbcwq:1,2015-06-04T13:00:00Z,30.3836,-88.4364,0.77,11.9,1111122 
NERRS,ioos:station:NOAA.NERRS:gndbcwq:1,2015-06-04T14:00:00Z,30.3836,-88.4364,0.85,13.6,1111122 
NERRS,ioos:station:NOAA.NERRS:gndbcwq:1,2015-06-04T15:00:00Z,30.3836,-88.4364,0.9,14.8,1111122 
NERRS,ioos:station:NOAA.NERRS:gndbcwq:1,2015-06-04T16:00:00Z,30.3836,-88.4364,0.91,15.1,1111122 
NERRS,ioos:station:NOAA.NERRS:gndbcwq:1,2015-06-04T17:00:00Z,30.3836,-88.4364,0.86,14.8,1111122 
NERRS,ioos:station:NOAA.NERRS:gndbcwq:1,2015-06-04T18:00:00Z,30.3836,-88.4364,0.8,14.2,1111122 
NERRS,ioos:station:NOAA.NERRS:gndbcwq:1,2015-06-04T19:00:00Z,30.3836,-88.4364,0.75,13.5,1111122 
NERRS,ioos:station:NOAA.NERRS:gndbcwq:1,2015-06-04T20:00:00Z,30.3836,-88.4364,0.69,12.7,1111122 
NERRS,ioos:station:NOAA.NERRS:gndbcwq:1,2015-06-05T13:00:00Z,30.3836,-88.4364,0.71,11.1,1111122 
NERRS,ioos:station:NOAA.NERRS:gndbcwq:1,2015-06-05T14:00:00Z,30.3836,-88.4364,0.77,12.2,1111122 
NERRS,ioos:station:NOAA.NERRS:gndbcwq:1,2015-06-05T15:00:00Z,30.3836,-88.4364,0.82,13.7,1111122 
NERRS,ioos:station:NOAA.NERRS:gndbcwq:1,2015-06-05T16:00:00Z,30.3836,-88.4364,0.84,14.3,1111122 
NERRS,ioos:station:NOAA.NERRS:gndbcwq:1,2015-06-05T17:00:00Z,30.3836,-88.4364,0.83,14.7,1111122 
NERRS,ioos:station:NOAA.NERRS:gndbcwq:1,2015-06-05T18:00:00Z,30.3836,-88.4364,0.79,13.3,1111122 
NERRS,ioos:station:NOAA.NERRS:gndbcwq:1,2015-06-05T19:00:00Z,30.3836,-88.4364,0.74,14.1,1111122 
NERRS,ioos:station:NOAA.NERRS:gndbcwq:1,2015-06-05T20:00:00Z,30.3836,-88.4364,0.7,12.6,1111122 
NERRS,ioos:station:NOAA.NERRS:gndbcwq:1,2015-06-05T21:00:00Z,30.3836,-88.4364,0.62,12.2,1111122 
NERRS,ioos:station:NOAA.NERRS:gndbcwq:1,2015-06-05T22:00:00Z,30.3836,-88.4364,0.51,11.1,1111122 
NERRS,ioos:station:NOAA.NERRS:gndbcwq:1,2015-06-05T23:00:00Z,30.3836,-88.4364,0.4,10.4,1111122 
NERRS,ioos:station:NOAA.NERRS:gndbcwq:1,2015-06-06T00:00:00Z,30.3836,-88.4364,0.31,8.3,1111122 
NERRS,ioos:station:NOAA.NERRS:gndbcwq:1,2015-06-06T01:00:00Z,30.3836,-88.4364,0.26,7.5,1111122 
NERRS,ioos:station:NOAA.NERRS:gndbcwq:1,2015-06-06T02:00:00Z,30.3836,-88.4364,0.25,6.9,1111122 
NERRS,ioos:station:NOAA.NERRS:gndbcwq:1,2015-06-06T03:00:00Z,30.3836,-88.4364,0.24,6.7,1111122 
NERRS,ioos:station:NOAA.NERRS:gndbcwq:1,2015-06-06T04:00:00Z,30.3836,-88.4364,0.25,6.4,1111122 
NERRS,ioos:station:NOAA.NERRS:gndbcwq:1,2015-06-06T05:00:00Z,30.3836,-88.4364,0.25,6.3,1111122 
NERRS,ioos:station:NOAA.NERRS:gndbcwq:1,2015-06-06T06:00:00Z,30.3836,-88.4364,0.28,7.9,1111122 
NERRS,ioos:station:NOAA.NERRS:gndbcwq:1,2015-06-06T07:00:00Z,30.3836,-88.4364,0.34,8.7,1111122 
NERRS,ioos:station:NOAA.NERRS:gndbcwq:1,2015-06-06T08:00:00Z,30.3836,-88.4364,0.41,8.6,1111122 
NERRS,ioos:station:NOAA.NERRS:gndbcwq:1,2015-06-06T09:00:00Z,30.3836,-88.4364,0.46,9.3,1111122 
NERRS,ioos:station:NOAA.NERRS:gndbcwq:1,2015-06-06T10:00:00Z,30.3836,-88.4364,0.47,9.5,1111122 
NERRS,ioos:station:NOAA.NERRS:gndbcwq:1,2015-06-06T11:00:00Z,30.3836,-88.4364,0.53,9.9,1111122 
NERRS,ioos:station:NOAA.NERRS:gndbcwq:1,2015-06-06T12:00:00Z,30.3836,-88.4364,0.59,10.7,1111122 
NERRS,ioos:station:NOAA.NERRS:gndbcwq:1,2015-06-06T13:00:00Z,30.3836,-88.4364,0.62,11.2,1111122 
NERRS,ioos:station:NOAA.NERRS:gndbcwq:1,2015-06-06T14:00:00Z,30.3836,-88.4364,0.66,12.0,1111122 
NERRS,ioos:station:NOAA.NERRS:gndbcwq:1,2015-06-06T15:00:00Z,30.3836,-88.4364,0.71,12.4,1111122 
NERRS,ioos:station:NOAA.NERRS:gndbcwq:1,2015-06-06T16:00:00Z,30.3836,-88.4364,0.75,13.1,1111122 
NERRS,ioos:station:NOAA.NERRS:gndbcwq:1,2015-06-06T17:00:00Z,30.3836,-88.4364,0.78,14.6,1111122 
NERRS,ioos:station:NOAA.NERRS:gndbcwq:1,2015-06-06T18:00:00Z,30.3836,-88.4364,0.76,14.9,1111122 
NERRS,ioos:station:NOAA.NERRS:gndbcwq:1,2015-06-06T19:00:00Z,30.3836,-88.4364,0.71,12.5,1111122 
NERRS,ioos:station:NOAA.NERRS:gndbcwq:1,2015-06-06T20:00:00Z,30.3836,-88.4364,0.66,11.8,1111122 
NERRS,ioos:station:NOAA.NERRS:gndbcwq:1,2015-06-06T21:00:00Z,30.3836,-88.4364,0.6,12.0,1111122 
NERRS,ioos:station:NOAA.NERRS:gndbcwq:1,2015-06-06T22:00:00Z,30.3836,-88.4364,0.49,11.4,1111122 
NERRS,ioos:station:NOAA.NERRS:gndbcwq:1,2015-06-06T23:00:00Z,30.3836,-88.4364,0.42,10.2,1111122 
NERRS,ioos:station:NOAA.NERRS:gndbcwq:1,2015-06-07T00:00:00Z,30.3836,-88.4364,0.36,10.4,1111122 
NERRS,ioos:station:NOAA.NERRS:gndbcwq:1,2015-06-07T01:00:00Z,30.3836,-88.4364,0.27,8.1,1111122 
NERRS,ioos:station:NOAA.NERRS:gndbcwq:1,2015-06-07T02:00:00Z,30.3836,-88.4364,0.21,7.5,1111122 
NERRS,ioos:station:NOAA.NERRS:gndbcwq:1,2015-06-07T03:00:00Z,30.3836,-88.4364,0.21,7.3,1111122 
NERRS,ioos:station:NOAA.NERRS:gndbcwq:1,2015-06-07T04:00:00Z,30.3836,-88.4364,0.21,7.1,1111122 
NERRS,ioos:station:NOAA.NERRS:gndbcwq:1,2015-06-07T06:00:00Z,30.3836,-88.4364,0.27,8.2,1111122 
NERRS,ioos:station:NOAA.NERRS:gndbcwq:1,2015-06-07T07:00:00Z,30.3836,-88.4364,0.32,8.5,1111122 
NERRS,ioos:station:NOAA.NERRS:gndbcwq:1,2015-06-07T08:00:00Z,30.3836,-88.4364,0.36,9.1,1111122 
NERRS,ioos:station:NOAA.NERRS:gndbcwq:1,2015-06-07T09:00:00Z,30.3836,-88.4364,0.43,9.9,1111122 
NERRS,ioos:station:NOAA.NERRS:gndbcwq:1,2015-06-07T10:00:00Z,30.3836,-88.4364,0.48,10.6,1111122 
NERRS,ioos:station:NOAA.NERRS:gndbcwq:1,2015-06-07T11:00:00Z,30.3836,-88.4364,0.51,11.3,1111122 
NERRS,ioos:station:NOAA.NERRS:gndbcwq:1,2015-06-07T12:00:00Z,30.3836,-88.4364,0.53,11.7,1111122 
NERRS,ioos:station:NOAA.NERRS:gndbcwq:1,2015-06-07T13:00:00Z,30.3836,-88.4364,0.57,11.6,1111122 
NERRS,ioos:station:NOAA.NERRS:gndbcwq:1,2015-06-07T14:00:00Z,30.3836,-88.4364,0.63,12.9,1111122 
NERRS,ioos:station:NOAA.NERRS:gndbcwq:1,2015-06-07T15:00:00Z,30.3836,-88.4364,0.68,12.2,1111122 
NERRS,ioos:station:NOAA.NERRS:gndbcwq:1,2015-06-07T16:00:00Z,30.3836,-88.4364,0.72,14.0,1111122 
NERRS,ioos:station:NOAA.NERRS:gndbcwq:1,2015-06-07T17:00:00Z,30.3836,-88.4364,0.75,14.9,1111122 
NERRS,ioos:station:NOAA.NERRS:gndbcwq:1,2015-06-07T18:00:00Z,30.3836,-88.4364,0.76,15.1,1111122 
NERRS,ioos:station:NOAA.NERRS:gndbcwq:1,2015-06-07T19:00:00Z,30.3836,-88.4364,0.75,15.3,1111122 
NERRS,ioos:station:NOAA.NERRS:gndbcwq:1,2015-06-07T20:00:00Z,30.3836,-88.4364,0.73,15.0,1111122 
NERRS,ioos:station:NOAA.NERRS:gndbcwq:1,2015-06-07T21:00:00Z,30.3836,-88.4364,0.68,14.6,1111122 
NERRS,ioos:station:NOAA.NERRS:gndbcwq:1,2015-06-07T22:00:00Z,30.3836,-88.4364,0.64,13.9,1111122 
NERRS,ioos:station:NOAA.NERRS:gndbcwq:1,2015-06-07T23:00:00Z,30.3836,-88.4364,0.56,12.7,1111122 
NERRS,ioos:station:NOAA.NERRS:gndbcwq:1,2015-06-08T00:00:00Z,30.3836,-88.4364,0.47,11.7,1111122 
NERRS,ioos:station:NOAA.NERRS:gndbcwq:1,2015-06-08T01:00:00Z,30.3836,-88.4364,0.4,10.0,1111122 
NERRS,ioos:station:NOAA.NERRS:gndbcwq:1,2015-06-08T02:00:00Z,30.3836,-88.4364,0.37,9.6,1111122 
NERRS,ioos:station:NOAA.NERRS:gndbcwq:1,2015-06-08T03:00:00Z,30.3836,-88.4364,0.35,9.0,1111122 
NERRS,ioos:station:NOAA.NERRS:gndbcwq:1,2015-06-08T04:00:00Z,30.3836,-88.4364,0.38,10.6,1111122 
NERRS,ioos:station:NOAA.NERRS:gndbcwq:1,2015-06-08T05:00:00Z,30.3836,-88.4364,0.41,10.6,1111122 
NERRS,ioos:station:NOAA.NERRS:gndbcwq:1,2015-06-08T06:00:00Z,30.3836,-88.4364,0.41,9.1,1111122 
NERRS,ioos:station:NOAA.NERRS:gndbcwq:1,2015-06-08T07:00:00Z,30.3836,-88.4364,0.41,10.7,1111122 
NERRS,ioos:station:NOAA.NERRS:gndbcwq:1,2015-06-08T08:00:00Z,30.3836,-88.4364,0.45,10.3,1111122 
NERRS,ioos:station:NOAA.NERRS:gndbcwq:1,2015-06-08T09:00:00Z,30.3836,-88.4364,0.47,10.8,1111122 
NERRS,ioos:station:NOAA.NERRS:gndbcwq:1,2015-06-08T10:00:00Z,30.3836,-88.4364,0.51,10.7,1111122 
NERRS,ioos:station:NOAA.NERRS:gndbcwq:1,2015-06-08T12:00:00Z,30.3836,-88.4364,0.58,11.3,1111122 
NERRS,ioos:station:NOAA.NERRS:gndbcwq:1,2015-06-08T13:00:00Z,30.3836,-88.4364,0.62,12.2,1111122 
NERRS,ioos:station:NOAA.NERRS:gndbcwq:1,2015-06-08T14:00:00Z,30.3836,-88.4364,0.63,12.4,1111122 
NERRS,ioos:station:NOAA.NERRS:gndbcwq:1,2015-06-08T15:00:00Z,30.3836,-88.4364,0.67,12.3,1111122 
NERRS,ioos:station:NOAA.NERRS:gndbcwq:1,2015-06-08T16:00:00Z,30.3836,-88.4364,0.67,12.5,1111122 
NERRS,ioos:station:NOAA.NERRS:gndbcwq:1,2015-06-08T17:00:00Z,30.3836,-88.4364,0.69,13.2,1111122 
NERRS,ioos:station:NOAA.NERRS:gndbcwq:1,2015-06-08T18:00:00Z,30.3836,-88.4364,0.69,13.3,1111122 
NERRS,ioos:station:NOAA.NERRS:gndbcwq:1,2015-06-08T19:00:00Z,30.3836,-88.4364,0.68,13.6,1111122 
NERRS,ioos:station:NOAA.NERRS:gndbcwq:1,2015-06-08T20:00:00Z,30.3836,-88.4364,0.66,13.2,1111122 
NERRS,ioos:station:NOAA.NERRS:gndbcwq:1,2015-06-08T21:00:00Z,30.3836,-88.4364,0.63,12.1,1111122 
NERRS,ioos:station:NOAA.NERRS:gndbcwq:1,2015-06-08T22:00:00Z,30.3836,-88.4364,0.6,11.6,1111122 
NERRS,ioos:station:NOAA.NERRS:gndbcwq:1,2015-06-08T23:00:00Z,30.3836,-88.4364,0.55,10.8,1111122 
NERRS,ioos:station:NOAA.NERRS:gndbcwq:1,2015-06-09T00:00:00Z,30.3836,-88.4364,0.48,10.4,1111122 
NERRS,ioos:station:NOAA.NERRS:gndbcwq:1,2015-06-09T01:00:00Z,30.3836,-88.4364,0.42,10.0,1111122 
NERRS,ioos:station:NOAA.NERRS:gndbcwq:1,2015-06-09T02:00:00Z,30.3836,-88.4364,0.42,9.9,1111122 
NERRS,ioos:station:NOAA.NERRS:gndbcwq:1,2015-06-09T03:00:00Z,30.3836,-88.4364,0.39,9.6,1111122 
NERRS,ioos:station:NOAA.NERRS:gndbcwq:1,2015-06-09T04:00:00Z,30.3836,-88.4364,0.38,9.5,1111122 
NERRS,ioos:station:NOAA.NERRS:gndbcwq:1,2015-06-09T06:00:00Z,30.3836,-88.4364,0.4,9.9,1111122 
NERRS,ioos:station:NOAA.NERRS:gndbcwq:1,2015-06-09T07:00:00Z,30.3836,-88.4364,0.39,8.6,1111122 
NERRS,ioos:station:NOAA.NERRS:gndbcwq:1,2015-06-09T08:00:00Z,30.3836,-88.4364,0.42,10.2,1111122 
NERRS,ioos:station:NOAA.NERRS:gndbcwq:1,2015-06-09T09:00:00Z,30.3836,-88.4364,0.45,9.3,1111122 
NERRS,ioos:station:NOAA.NERRS:gndbcwq:1,2015-06-09T10:00:00Z,30.3836,-88.4364,0.41,10.4,1111122 
NERRS,ioos:station:NOAA.NERRS:gndbcwq:1,2015-06-09T11:00:00Z,30.3836,-88.4364,0.47,10.3,1111122 
NERRS,ioos:station:NOAA.NERRS:gndbcwq:1,2015-06-09T12:00:00Z,30.3836,-88.4364,0.5,10.9,1111122 
NERRS,ioos:station:NOAA.NERRS:gndbcwq:1,2015-06-09T13:00:00Z,30.3836,-88.4364,0.5,9.7,1111122 
NERRS,ioos:station:NOAA.NERRS:gndbcwq:1,2015-06-09T14:00:00Z,30.3836,-88.4364,0.51,9.6,1111122 
NERRS,ioos:station:NOAA.NERRS:gndbcwq:1,2015-06-09T15:00:00Z,30.3836,-88.4364,0.52,8.1,1111122 
NERRS,ioos:station:NOAA.NERRS:gndbcwq:1,2015-06-09T16:00:00Z,30.3836,-88.4364,0.47,7.5,1111122 
NERRS,ioos:station:NOAA.NERRS:gndbcwq:1,2015-06-09T17:00:00Z,30.3836,-88.4364,0.44,6.9,1111122 
NERRS,ioos:station:NOAA.NERRS:gndbcwq:1,2015-06-09T18:00:00Z,30.3836,-88.4364,0.35,6.0,1111122 
NERRS,ioos:station:NOAA.NERRS:gndbcwq:1,2015-06-09T19:00:00Z,30.3836,-88.4364,0.42,5.9,1111122 
NERRS,ioos:station:NOAA.NERRS:gndbcwq:1,2015-06-09T20:00:00Z,30.3836,-88.4364,0.51,6.6,1111122 
NERRS,ioos:station:NOAA.NERRS:gndbcwq:1,2015-06-09T21:00:00Z,30.3836,-88.4364,0.58,7.7,1111122 
NERRS,ioos:station:NOAA.NERRS:gndbcwq:1,2015-06-09T22:00:00Z,30.3836,-88.4364,0.62,8.1,1111122 
NERRS,ioos:station:NOAA.NERRS:gndbcwq:1,2015-06-09T23:00:00Z,30.3836,-88.4364,0.53,8.3,1111122 
NERRS,ioos:station:NOAA.NERRS:gndbcwq:1,2015-06-10T00:00:00Z,30.3836,-88.4364,0.43,6.5,1111122 
NERRS,ioos:station:NOAA.NERRS:gndbcwq:1,2015-06-10T01:00:00Z,30.3836,-88.4364,0.43,5.7,1111122 
NERRS,ioos:station:NOAA.NERRS:gndbcwq:1,2015-06-10T02:00:00Z,30.3836,-88.4364,0.46,6.1,1111122 
NERRS,ioos:station:NOAA.NERRS:gndbcwq:1,2015-06-10T03:00:00Z,30.3836,-88.4364,0.45,5.9,1111122 
NERRS,ioos:station:NOAA.NERRS:gndbcwq:1,2015-06-10T04:00:00Z,30.3836,-88.4364,0.45,5.7,1111122 
NERRS,ioos:station:NOAA.NERRS:gndbcwq:1,2015-06-10T05:00:00Z,30.3836,-88.4364,0.47,6.0,1111122 
NERRS,ioos:station:NOAA.NERRS:gndbcwq:1,2015-06-10T06:00:00Z,30.3836,-88.4364,0.51,6.8,1111122 
NERRS,ioos:station:NOAA.NERRS:gndbcwq:1,2015-06-10T07:00:00Z,30.3836,-88.4364,0.51,6.0,1111122 
NERRS,ioos:station:NOAA.NERRS:gndbcwq:1,2015-06-10T08:00:00Z,30.3836,-88.4364,0.51,6.7,1111122 
NERRS,ioos:station:NOAA.NERRS:gndbcwq:1,2015-06-10T09:00:00Z,30.3836,-88.4364,0.54,7.8,1111122 
NERRS,ioos:station:NOAA.NERRS:gndbcwq:1,2015-06-10T10:00:00Z,30.3836,-88.4364,0.6,8.4,1111122 
NERRS,ioos:station:NOAA.NERRS:gndbcwq:1,2015-06-10T11:00:00Z,30.3836,-88.4364,0.62,10.4,1111122 
NERRS,ioos:station:NOAA.NERRS:gndbcwq:1,2015-06-10T12:00:00Z,30.3836,-88.4364,0.6,9.8,1111122 
NERRS,ioos:station:NOAA.NERRS:gndbcwq:1,2015-06-10T13:00:00Z,30.3836,-88.4364,0.56,5.6,1111122 
NERRS,ioos:station:NOAA.NERRS:gndbcwq:1,2015-06-10T14:00:00Z,30.3836,-88.4364,0.54,5.8,1111122 
NERRS,ioos:station:NOAA.NERRS:gndbcwq:1,2015-06-10T15:00:00Z,30.3836,-88.4364,0.55,10.7,1111122 
NERRS,ioos:station:NOAA.NERRS:gndbcwq:1,2015-06-10T16:00:00Z,30.3836,-88.4364,0.56,9.8,1111122 
NERRS,ioos:station:NOAA.NERRS:gndbcwq:1,2015-06-10T17:00:00Z,30.3836,-88.4364,0.54,7.6,1111122 
NERRS,ioos:station:NOAA.NERRS:gndbcwq:1,2015-06-10T18:00:00Z,30.3836,-88.4364,0.49,8.0,1111122 
NERRS,ioos:station:NOAA.NERRS:gndbcwq:1,2015-06-10T19:00:00Z,30.3836,-88.4364,0.43,6.5,1111122 
NERRS,ioos:station:NOAA.NERRS:gndbcwq:1,2015-06-10T20:00:00Z,30.3836,-88.4364,0.43,6.4,1111122 
NERRS,ioos:station:NOAA.NERRS:gndbcwq:1,2015-06-10T21:00:00Z,30.3836,-88.4364,0.41,6.0,1111122 
NERRS,ioos:station:NOAA.NERRS:gndbcwq:1,2015-06-10T22:00:00Z,30.3836,-88.4364,0.47,5.7,1111122 
NERRS,ioos:station:NOAA.NERRS:gndbcwq:1,2015-06-10T23:00:00Z,30.3836,-88.4364,0.49,6.9,1111122 
NERRS,ioos:station:NOAA.NERRS:gndbcwq:1,2015-06-11T00:00:00Z,30.3836,-88.4364,0.5,6.7,1111122 
NERRS,ioos:station:NOAA.NERRS:gndbcwq:1,2015-06-11T01:00:00Z,30.3836,-88.4364,0.5,6.4,1111122 
NERRS,ioos:station:NOAA.NERRS:gndbcwq:1,2015-06-11T02:00:00Z,30.3836,-88.4364,0.5,5.9,1111122 
NERRS,ioos:station:NOAA.NERRS:gndbcwq:1,2015-06-11T03:00:00Z,30.3836,-88.4364,0.49,5.5,1111122 
NERRS,ioos:station:NOAA.NERRS:gndbcwq:1,2015-06-11T04:00:00Z,30.3836,-88.4364,0.51,6.0,1111122 
NERRS,ioos:station:NOAA.NERRS:gndbcwq:1,2015-06-11T06:00:00Z,30.3836,-88.4364,0.59,7.5,1111122 
NERRS,ioos:station:NOAA.NERRS:gndbcwq:1,2015-06-11T07:00:00Z,30.3836,-88.4364,0.6,7.7,1111122 
NERRS,ioos:station:NOAA.NERRS:gndbcwq:1,2015-06-11T08:00:00Z,30.3836,-88.4364,0.62,7.7,1111122 
NERRS,ioos:station:NOAA.NERRS:gndbcwq:1,2015-06-11T09:00:00Z,30.3836,-88.4364,0.63,8.3,1111122 
NERRS,ioos:station:NOAA.NERRS:gndbcwq:1,2015-06-11T10:00:00Z,30.3836,-88.4364,0.64,7.4,1111122 
NERRS,ioos:station:NOAA.NERRS:gndbcwq:1,2015-06-11T11:00:00Z,30.3836,-88.4364,0.63,6.2,1111122 
NERRS,ioos:station:NOAA.NERRS:gndbcwq:1,2015-06-11T12:00:00Z,30.3836,-88.4364,0.62,7.5,1111122 
NERRS,ioos:station:NOAA.NERRS:gndbcwq:1,2015-06-11T13:00:00Z,30.3836,-88.4364,0.63,8.2,1111122 
NERRS,ioos:station:NOAA.NERRS:gndbcwq:1,2015-06-11T14:00:00Z,30.3836,-88.4364,0.63,7.7,1111122 
NERRS,ioos:station:NOAA.NERRS:gndbcwq:1,2015-06-11T15:00:00Z,30.3836,-88.4364,0.6,6.5,1111122 
NERRS,ioos:station:NOAA.NERRS:gndbcwq:1,2015-06-11T16:00:00Z,30.3836,-88.4364,0.57,8.2,1111122 
NERRS,ioos:station:NOAA.NERRS:gndbcwq:1,2015-06-11T17:00:00Z,30.3836,-88.4364,0.53,8.3,1111122 
NERRS,ioos:station:NOAA.NERRS:gndbcwq:1,2015-06-11T18:00:00Z,30.3836,-88.4364,0.44,6.2,1111122 
NERRS,ioos:station:NOAA.NERRS:gndbcwq:1,2015-06-11T19:00:00Z,30.3836,-88.4364,0.45,6.7,1111122 
NERRS,ioos:station:NOAA.NERRS:gndbcwq:1,2015-06-11T20:00:00Z,30.3836,-88.4364,0.45,6.6,1111122 
NERRS,ioos:station:NOAA.NERRS:gndbcwq:1,2015-06-11T21:00:00Z,30.3836,-88.4364,0.48,8.6,1111122 
NERRS,ioos:station:NOAA.NERRS:gndbcwq:1,2015-06-11T22:00:00Z,30.3836,-88.4364,0.47,7.4,1111122 
NERRS,ioos:station:NOAA.NERRS:gndbcwq:1,2015-06-11T23:00:00Z,30.3836,-88.4364,0.43,6.6,1111122 
NERRS,ioos:station:NOAA.NERRS:gndbcwq:1,2015-06-12T00:00:00Z,30.3836,-88.4364,0.5,7.2,1111122 
NERRS,ioos:station:NOAA.NERRS:gndbcwq:1,2015-06-12T01:00:00Z,30.3836,-88.4364,0.56,8.0,1111122 
NERRS,ioos:station:NOAA.NERRS:gndbcwq:1,2015-06-12T02:00:00Z,30.3836,-88.4364,0.59,8.3,1111122 
NERRS,ioos:station:NOAA.NERRS:gndbcwq:1,2015-06-12T03:00:00Z,30.3836,-88.4364,0.62,8.6,1111122 
NERRS,ioos:station:NOAA.NERRS:gndbcwq:1,2015-06-12T04:00:00Z,30.3836,-88.4364,0.65,8.8,1111122 
NERRS,ioos:station:NOAA.NERRS:gndbcwq:1,2015-06-12T06:00:00Z,30.3836,-88.4364,0.7,9.9,1111122 
NERRS,ioos:station:NOAA.NERRS:gndbcwq:1,2015-06-12T07:00:00Z,30.3836,-88.4364,0.74,12.0,1111122 
NERRS,ioos:station:NOAA.NERRS:gndbcwq:1,2015-06-12T08:00:00Z,30.3836,-88.4364,0.74,12.8,1111122 